Regional Weather Roundup
Issued by NWS

Home | Current Version | Previous Version | Text Only | Print | Product List | Glossary Off
Versions: 1 2 3 4 5 6 7 8 9 10 11 12 13 14 15 16 17 18 19 20 21 22 23 24 25 26 27 28 29 30 31 32 33 34 35 36 37 38 39 40 41 42 43 44 45 46 47 48 49 50

000
ASUS43 KFSD 310402
RWRSD

WEATHER ROUNDUP FOR SOUTH DAKOTA
NATIONAL WEATHER SERVICE SIOUX FALLS SD
1100 PM CDT SAT JUL 30 2016

NOTE: "FAIR" INDICATES FEW OR NO CLOUDS BELOW 12,000 FEET WITH NO
SIGNIFICANT WEATHER AND/OR OBSTRUCTIONS TO VISIBILITY.


SDZ001>005-009-010-012>017-310500-
NORTHWEST AND NORTH CENTRAL SOUTH DAKOTA

CITY           SKY/WX    TMP DP  RH WIND       PRES   REMARKS
BUFFALO          N/A     74  56  53 S6        29.72F
FAITH            N/A     75  60  59 SE15      29.80F
MOBRIDGE       CLEAR     69  63  81 NE22      29.79F
$$

SDZ012>016-024>037-041>051-057-063-072>074-310500-
SOUTHWEST AND SOUTH CENTRAL SOUTH DAKOTA

CITY           SKY/WX    TMP DP  RH WIND       PRES   REMARKS
RAPID CTY ARPT CLOUDY    64  60  87 E7        29.88R
PIERRE         CLOUDY    68  61  78 SW12      29.83F THUNDER
CUSTER         CLOUDY    56  53  90 NW5       30.02R
ELLSWORTH AFB  CLOUDY    67  61  83 SW9       29.87
PHILIP         CLOUDY    76  62  62 MISG      29.85R
PINE RIDGE     CLOUDY    79  65  62 MISG      29.94R
WINNER         FAIR      75  68  78 SE17      29.85F
$$

SDZ004>011-016>023-039-040-310500-
NORTHEAST SOUTH DAKOTA

CITY           SKY/WX    TMP DP  RH WIND       PRES   REMARKS
ABERDEEN       CLEAR     70  60  70 SE10      29.89S
WATERTOWN      CLOUDY    69  59  70 SE9       29.95S
BROOKINGS      MOCLDY    67  60  78 SE9       29.96S
SISSETON         N/A     63  59  87 S6        29.93R
$$

SDZ017-020-022-023-036>040-048>070-310500-
SOUTHEAST SOUTH DAKOTA

CITY           SKY/WX    TMP DP  RH WIND       PRES   REMARKS
SIOUX FALLS    CLOUDY    73  60  63 S9        29.96S
HURON          CLOUDY    74  62  66 SE9       29.89F
CHAMBERLAIN    CLOUDY    75  67  76 SE12G20   29.87F
MITCHELL       CLOUDY    74  63  68 SE10      29.90F
YANKTON        MOCLDY    72  63  73 SE6       29.93F
$$

ABBREVIATIONS USED IN REMARKS
   TC - TEMPERATURE IN CELSIUS
  WCI - WIND CHILL INDEX
   HX - HEAT INDEX
  VSB - VISIBILITY





USA.gov is the U.S. government's official web portal to all federal, state and local government web resources and services.